Weather History for Carmi, IL

Change the Weather History Date:

Sunday, October 16, 2011

  Actual Average (KEVV) Record (KEVV)
Temperature  
Mean Temperature 66 °F 58 °F  
Max Temperature 86 °F 70 °F 88 °F (1938)
Min Temperature 46 °F 45 °F 27 °F (1991)
Degree Days  
Heating Degree Days 0 8  
Month to date heating degree days 103  
Since 1 July heating degree days 150  
Cooling Degree Days 1 1  
Month to date cooling degree days 23  
Year to date cooling degree days 1389  
Growing Degree Days 16 (Base 50)    
Moisture  
Dew Point 48 °F    
Average Humidity 50    
Maximum Humidity 93    
Minimum Humidity 31    
Precipitation  
Precipitation 0.00 in 0.10 in 2.58 in (1928)
Month to date precipitation 1.62  
Year to date precipitation 35.59  
Snow  
Snow 0.00 in 0.00 in 0.00 in (2002)
Month to date snowfall 0.0  
Since 1 July snowfall 0.0  
Since 1 September snowfall 0.0  
Snow Depth -    
Sea Level Pressure  
Sea Level Pressure 29.91 in    
Wind  
Wind Speed 10 mph (SSW)    
Max Wind Speed 24 mph    
Max Gust Speed 33 mph    
Visibility 10 miles    
Events      
T = Trace of Precipitation, MM = Missing Value Source: NWS Daily Summary

Daily Weather History Graph

Daily Weather History Graph

Search for Another Location

Airport:

Trip Planner

Search our weather history database for the weather conditions in past years. The results will help you decide how hot, cold, wet, or windy it might be!

Date:

Astronomy

Oct. 16, 2011 Rise Set
Actual Time 7:01 AM CDT 6:13 PM CDT
Civil Twilight 6:35 AM CDT 6:40 PM CDT
Nautical Twilight 6:04 AM CDT 7:10 PM CDT
Astronomical Twilight 5:34 AM CDT 7:41 PM CDT
Moon 9:03 PM CDT (10/16) 11:14 AM CDT (10/16)
Length of Visible Light 12h 04m
Length of Day
11h 11m
Waning Gibbous, 82% of the Moon is Illuminated
Oct 16
Waning Gibbous
Oct 19
Last Quarter
Oct 26
New
Nov 2
First Quarter
Nov 10
Full

Hourly Weather History & Observations

Time (CDT) Temp. Windchill Dew Point Humidity Pressure Visibility Wind Dir Wind Speed Gust Speed Precip Events Conditions
12:35 AM 46.4 °F 44.3 °F 44.6 °F 93% 30.02 in 10.0 mi SSE 4.6 mph - N/A   Clear
12:55 AM 46.4 °F 43.5 °F 44.6 °F 93% 30.02 in 10.0 mi SE 5.8 mph - N/A   Clear
1:15 AM 48.2 °F - 44.6 °F 87% 30.01 in 10.0 mi SSE 5.8 mph - N/A   Clear
1:35 AM 50.0 °F - 44.6 °F 82% 30.00 in 10.0 mi SSE 5.8 mph - N/A   Clear
1:55 AM 50.0 °F - 44.6 °F 82% 30.00 in 10.0 mi South 4.6 mph - N/A   Clear
2:15 AM 50.0 °F - 44.6 °F 82% 29.99 in 10.0 mi SSE 4.6 mph - N/A   Clear
2:35 AM 51.8 °F - 44.6 °F 76% 29.99 in 10.0 mi South 4.6 mph - N/A   Clear
2:55 AM 53.6 °F - 42.8 °F 67% 29.97 in 10.0 mi South 6.9 mph - N/A   Clear
3:15 AM 55.4 °F - 42.8 °F 63% 29.97 in 10.0 mi South 8.1 mph - N/A   Clear
3:55 AM 55.4 °F - 42.8 °F 63% 29.97 in 10.0 mi South 5.8 mph - N/A   Clear
4:15 AM 55.4 °F - 42.8 °F 63% 29.96 in 10.0 mi South 5.8 mph - N/A   Clear
4:35 AM 55.4 °F - 42.8 °F 63% 29.96 in 10.0 mi South 5.8 mph - N/A   Clear
4:55 AM 55.4 °F - 42.8 °F 63% 29.96 in 10.0 mi South 4.6 mph - N/A   Clear
5:15 AM 53.6 °F - 42.8 °F 67% 29.96 in 10.0 mi South 5.8 mph - N/A   Clear
5:35 AM 55.4 °F - 42.8 °F 63% 29.96 in 10.0 mi South 8.1 mph - N/A   Clear
5:55 AM 60.8 °F - 42.8 °F 52% 29.96 in 10.0 mi South 9.2 mph - N/A   Clear
6:35 AM 60.8 °F - 42.8 °F 52% 29.95 in 10.0 mi SSW 11.5 mph 17.3 mph N/A   Clear
6:55 AM 62.6 °F - 42.8 °F 48% 29.95 in 10.0 mi SSW 11.5 mph 17.3 mph N/A   Clear
7:15 AM 62.6 °F - 42.8 °F 48% 29.96 in 10.0 mi SSW 9.2 mph 17.3 mph N/A   Clear
7:35 AM 62.6 °F - 42.8 °F 48% 29.96 in 10.0 mi SSW 13.8 mph 18.4 mph N/A   Clear
8:15 AM 64.4 °F - 44.6 °F 49% 29.96 in 10.0 mi SSW 13.8 mph 19.6 mph N/A   Clear
8:35 AM 66.2 °F - 44.6 °F 46% 29.96 in 10.0 mi SSW 13.8 mph 19.6 mph N/A   Clear
8:55 AM 68.0 °F - 44.6 °F 43% 29.96 in 10.0 mi SSW 15.0 mph 24.2 mph N/A   Clear
9:15 AM 69.8 °F - 46.4 °F 43% 29.96 in 10.0 mi SSW 15.0 mph 24.2 mph N/A   Clear
9:35 AM 69.8 °F - 48.2 °F 46% 29.95 in 10.0 mi SW 15.0 mph 21.9 mph N/A   Clear
9:55 AM 71.6 °F - 48.2 °F 43% 29.95 in 10.0 mi SW 21.9 mph 28.8 mph N/A   Clear
10:15 AM 73.4 °F - 50.0 °F 44% 29.94 in 10.0 mi SSW 21.9 mph 29.9 mph N/A   Clear
10:35 AM 75.2 °F - 48.2 °F 38% 29.93 in 10.0 mi SW 24.2 mph 27.6 mph N/A   Clear
10:55 AM 77.0 °F - 48.2 °F 36% 29.92 in 10.0 mi SW 18.4 mph 28.8 mph N/A   Clear
11:15 AM 77.0 °F - 48.2 °F 36% 29.91 in 10.0 mi SSW 16.1 mph 27.6 mph N/A   Clear
11:35 AM 78.8 °F - 50.0 °F 36% 29.90 in 10.0 mi SW 21.9 mph 33.4 mph N/A   Clear
11:55 AM 80.6 °F - 50.0 °F 34% 29.89 in 10.0 mi SW 20.7 mph 28.8 mph N/A   Clear
12:15 PM 80.6 °F - 50.0 °F 34% 29.88 in 10.0 mi SW 21.9 mph 32.2 mph N/A   Clear
12:35 PM 80.6 °F - 50.0 °F 34% 29.87 in 10.0 mi SW 23.0 mph 31.1 mph N/A   Clear
12:55 PM 82.4 °F - 50.0 °F 32% 29.85 in 10.0 mi SSW 19.6 mph 27.6 mph N/A   Clear
1:15 PM 82.4 °F - 51.8 °F 35% 29.85 in 10.0 mi SSW 16.1 mph 24.2 mph N/A   Clear
1:35 PM 84.2 °F - 51.8 °F 33% 29.84 in 10.0 mi SW 17.3 mph 26.5 mph N/A   Clear
2:15 PM 86.0 °F - 51.8 °F 31% 29.82 in 10.0 mi SW 17.3 mph 27.6 mph N/A   Clear
2:35 PM 86.0 °F - 51.8 °F 31% 29.82 in 10.0 mi SW 20.7 mph 26.5 mph N/A   Clear
2:55 PM 86.0 °F - 51.8 °F 31% 29.82 in 10.0 mi SW 19.6 mph 28.8 mph N/A   Clear
3:15 PM 86.0 °F - 51.8 °F 31% 29.82 in 10.0 mi SW 17.3 mph 25.3 mph N/A   Clear
3:35 PM 86.0 °F - 51.8 °F 31% 29.82 in 10.0 mi SW 18.4 mph 26.5 mph N/A   Clear
3:55 PM 86.0 °F - 51.8 °F 31% 29.82 in 10.0 mi WSW 13.8 mph 21.9 mph N/A   Clear
4:15 PM 86.0 °F - 51.8 °F 31% 29.82 in 10.0 mi SW 21.9 mph - N/A   Clear
4:35 PM 84.2 °F - 51.8 °F 33% 29.82 in 10.0 mi SW 13.8 mph 20.7 mph N/A   Clear
4:55 PM 84.2 °F - 51.8 °F 33% 29.81 in 10.0 mi SW 11.5 mph 17.3 mph N/A   Clear
5:15 PM 82.4 °F - 51.8 °F 35% 29.81 in 10.0 mi SW 15.0 mph 19.6 mph N/A   Clear
5:35 PM 80.6 °F - 51.8 °F 37% 29.81 in 10.0 mi SW 11.5 mph - N/A   Clear
5:55 PM 78.8 °F - 53.6 °F 42% 29.81 in 10.0 mi SW 8.1 mph - N/A   Clear
6:35 PM 77.0 °F - 51.8 °F 41% 29.83 in 10.0 mi NW 6.9 mph - N/A   Scattered Clouds
7:15 PM 69.8 °F - 51.8 °F 53% 29.87 in 10.0 mi NNW 15.0 mph 21.9 mph N/A   Clear
7:35 PM 68.0 °F - 51.8 °F 56% 29.88 in 10.0 mi NNW 11.5 mph 18.4 mph N/A   Clear
7:55 PM 66.2 °F - 50.0 °F 56% 29.89 in 10.0 mi NNW 6.9 mph - N/A   Clear
8:15 PM 64.4 °F - 50.0 °F 59% 29.89 in 10.0 mi North 6.9 mph - N/A   Clear
8:35 PM 64.4 °F - 50.0 °F 59% 29.91 in 10.0 mi NNW 8.1 mph - N/A   Clear
8:55 PM 64.4 °F - 48.2 °F 56% 29.92 in 10.0 mi North 8.1 mph - N/A   Clear
9:15 PM 62.6 °F - 46.4 °F 55% 29.93 in 10.0 mi NNW 6.9 mph - N/A   Clear
9:35 PM 60.8 °F - 48.2 °F 63% 29.94 in 10.0 mi NNW 6.9 mph - N/A   Clear
9:55 PM 60.8 °F - 46.4 °F 59% 29.94 in 10.0 mi North 4.6 mph - N/A   Clear
10:35 PM 57.2 °F - 46.4 °F 67% 29.95 in 10.0 mi NW 3.5 mph - N/A   Clear
10:55 PM 55.4 °F - 48.2 °F 77% 29.97 in 10.0 mi WNW 4.6 mph - N/A   Scattered Clouds
11:15 PM 55.4 °F - 48.2 °F 77% 29.97 in 10.0 mi West 4.6 mph - N/A   Mostly Cloudy
11:35 PM 53.6 °F - 48.2 °F 82% 29.97 in 10.0 mi West 4.6 mph - N/A   Scattered Clouds
11:55 PM 53.6 °F - 48.2 °F 82% 29.98 in 10.0 mi NW 5.8 mph - N/A   Scattered Clouds